Location: ??????
(56.0120°N, 39.1740°E)
Time: 21:09:34
(UTC+00:00)

Cosmos 1190 Rocket - Pass Details

Date: 14 April 2026
Orbit: 752 x 776 km, 74.1° (Epoch: 11 May)

Event Time Altitude Azimuth Distance (km) Brightness Sun altitude
Rises 20:39:30 0° 331° (NNW) 3,270 8.5 -23.7°
Reaches altitude 10° 20:41:54 10° 334° (NNW) 2,338 7.5 -23.8°
Maximum altitude 20:47:13 71° 58° (ENE) 825 4.1 -23.9°
Enters shadow 20:48:19 54° 120° (ESE) 940 4.2 -23.9°
